Weather History for Kansas City International, MO

Change the Weather History Date:

Tuesday, October 15, 2013

  Actual Average Record
Temperature  
Mean Temperature 53 °F 57 °F  
Max Temperature 60 °F 67 °F 91 °F (1938)
Min Temperature 46 °F 46 °F 32 °F (1943)
Degree Days  
Heating Degree Days 12 9  
Month to date heating degree days 74 107  
Since 1 July heating degree days 93 174  
Cooling Degree Days 0 1  
Month to date cooling degree days 28 20  
Year to date cooling degree days 1345 1352  
Growing Degree Days 3 (Base 50)    
Moisture  
Dew Point 46 °F    
Average Humidity 70    
Maximum Humidity 93    
Minimum Humidity 47    
Precipitation  
Precipitation 0.10 in 0.10 in 1.55 in (1967)
Month to date precipitation 2.39 1.68  
Year to date precipitation 29.90 33.70  
Snow  
Snow 0.00 in 0.00 in T in (2001)
Month to date snowfall 0.0 0.0  
Since 1 July snowfall 0.0 0.0  
Since 1 September snowfall 0.0 0.0  
Snow Depth 0.00 in    
Sea Level Pressure  
Sea Level Pressure 29.96 in    
Wind  
Wind Speed 11 mph (West)    
Max Wind Speed 21 mph    
Max Gust Speed 25 mph    
Visibility 9 miles    
Events Rain    
T = Trace of Precipitation, MM = Missing Value Source: NWS Daily Summary

Daily Weather History Graph

Daily Weather History Graph

Search for Another Location

Airport:

Trip Planner

Search our weather history database for the weather conditions in past years. The results will help you decide how hot, cold, wet, or windy it might be!

Date:

Astronomy

Oct. 15, 2013 Rise Set
Actual Time 7:28 AM CDT 6:39 PM CDT
Civil Twilight 7:01 AM CDT 7:06 PM CDT
Nautical Twilight 6:30 AM CDT 7:37 PM CDT
Astronomical Twilight 5:59 AM CDT 8:08 PM CDT
Moon 4:44 PM CDT (10/15) 3:53 AM CDT (10/15)
Length of Visible Light 12h 04m
Length of Day
11h 10m
Waxing Gibbous, 88% of the Moon is Illuminated
Oct 15
Waxing Gibbous
Oct 18
Full
Oct 26
Last Quarter
Nov 3
New
Nov 9
First Quarter

Hourly Weather History & Observations

Time (CDT) Temp. Dew Point Humidity Pressure Visibility Wind Dir Wind Speed Gust Speed Precip Events Conditions
12:19 AM 60.8 °F 57.2 °F 88% 29.91 in 2.5 mi SW 16.1 mph 24.2 mph 0.13 in Rain Heavy Rain
12:38 AM 60.8 °F 57.2 °F 88% 29.90 in 7.0 mi SW 8.1 mph - 0.21 in Rain Light Rain
12:53 AM 60.1 °F 57.0 °F 90% 29.88 in 6.0 mi WSW 9.2 mph - 0.22 in Rain Light Rain
1:05 AM 60.8 °F 57.2 °F 88% 29.90 in 4.0 mi West 5.8 mph - 0.02 in Rain Rain
1:17 AM 60.8 °F 57.2 °F 88% 29.91 in 3.0 mi West 4.6 mph - 0.06 in Rain Light Rain
1:21 AM 60.8 °F 57.2 °F 88% 29.91 in 2.5 mi Calm Calm - 0.07 in Rain Rain
1:31 AM 60.8 °F 57.2 °F 88% 29.88 in 7.0 mi SE 8.1 mph - 0.08 in Rain Light Rain
1:53 AM 60.1 °F 57.0 °F 90% 29.85 in 10.0 mi SE 10.4 mph - 0.09 in Rain Light Rain
2:53 AM 59.0 °F 57.0 °F 93% 29.88 in 10.0 mi South 8.1 mph - 0.02 in Rain Light Rain
3:53 AM 59.0 °F 57.0 °F 93% 29.87 in 10.0 mi SW 10.4 mph - 0.00 in   Light Drizzle
4:04 AM 59.0 °F 57.2 °F 94% 29.88 in 10.0 mi SW 9.2 mph - 0.00 in   Light Drizzle
4:13 AM 60.8 °F 57.2 °F 88% 29.89 in 10.0 mi West 8.1 mph - 0.00 in   Light Drizzle
4:53 AM 54.0 °F 48.0 °F 80% 29.91 in 10.0 mi WNW 12.7 mph - 0.00 in   Overcast
5:53 AM 51.1 °F 44.1 °F 77% 29.92 in 10.0 mi WNW 10.4 mph 19.6 mph N/A   Scattered Clouds
6:53 AM 48.0 °F 42.1 °F 80% 29.94 in 10.0 mi WNW 6.9 mph - N/A   Scattered Clouds
7:53 AM 46.9 °F 42.1 °F 83% 29.96 in 10.0 mi West 6.9 mph - N/A   Scattered Clouds
8:53 AM 48.9 °F 42.1 °F 77% 29.98 in 10.0 mi West 8.1 mph - N/A   Scattered Clouds
9:53 AM 51.1 °F 41.0 °F 68% 29.99 in 10.0 mi WNW 10.4 mph - N/A   Scattered Clouds
10:53 AM 52.0 °F 39.9 °F 63% 29.99 in 10.0 mi WNW 11.5 mph - N/A   Scattered Clouds
11:53 AM 55.0 °F 39.9 °F 57% 29.99 in 10.0 mi WNW 12.7 mph 20.7 mph N/A   Scattered Clouds
12:53 PM 57.9 °F 39.9 °F 51% 29.99 in 10.0 mi West 11.5 mph - N/A   Scattered Clouds
1:53 PM 59.0 °F 39.0 °F 48% 29.97 in 10.0 mi West 18.4 mph 25.3 mph N/A   Scattered Clouds
2:53 PM 59.0 °F 39.0 °F 48% 29.97 in 10.0 mi West 15.0 mph 21.9 mph N/A   Scattered Clouds
3:53 PM 59.0 °F 39.0 °F 48% 29.98 in 10.0 mi WNW 13.8 mph - N/A   Partly Cloudy
4:53 PM 57.9 °F 37.9 °F 47% 29.99 in 10.0 mi WNW 13.8 mph 24.2 mph N/A   Partly Cloudy
5:53 PM 55.0 °F 37.0 °F 51% 30.00 in 10.0 mi WNW 12.7 mph 21.9 mph N/A   Scattered Clouds
6:53 PM 52.0 °F 37.0 °F 57% 30.03 in 10.0 mi NW 12.7 mph 20.7 mph N/A   Mostly Cloudy
7:53 PM 50.0 °F 36.0 °F 59% 30.05 in 10.0 mi WNW 8.1 mph - N/A   Mostly Cloudy
8:53 PM 51.1 °F 36.0 °F 56% 30.06 in 10.0 mi WNW 11.5 mph 17.3 mph N/A   Overcast
9:53 PM 50.0 °F 37.0 °F 61% 30.07 in 10.0 mi WNW 11.5 mph - N/A   Mostly Cloudy
10:53 PM 50.0 °F 36.0 °F 59% 30.07 in 10.0 mi NW 13.8 mph 23.0 mph N/A   Overcast
11:53 PM 48.0 °F 37.0 °F 66% 30.07 in 10.0 mi WNW 8.1 mph - N/A   Mostly Cloudy